Date String (YYYY-MM-DD hh:mm:ss) UTC,Instrument flags,absolute air pressure of the measurement (hPa),sample flow rate (lpm),inlet stack bypass flow (lpm),air temperature of the measurement (°C),ambient temperature measured by the external sensor (°C),aerosol sample conditioner tube jacket temperature (°C),OPC LED temperature (°C),internal box temperature (°C),relative humidity of the measurement (%),span deviation,mass concentration of particles derived from Lorenz-Mie calculation of OPC scattering (μg/m³),mass concentration of particles derived from Lorenz-Mie calculation of OPC scattering (μg/m³),mass concentration of particles derived from Lorenz-Mie calculation of OPC scattering (μg/m³)
DateTimeUTC,F1_M11,P_M11,Q1_M11,Q2_M11,T1_M11,T2_M11,T3_M11,T4_M11,T5_M11,U1_M11,ZSPAN_M11,X0_M11,X2_M11,X1_M11
2024-05-18 07:00:00,SystemResetWarning,0824.4,5.00,000.00,024.5,023.5,000.0,032.8,026.3,018.3,0000.0,0010.79,0003.58,0002.64
2024-05-18 07:01:00,SystemResetWarning,0824.4,4.99,000.00,024.6,023.7,000.0,032.7,026.4,018.3,0000.0,0010.51,0003.57,0002.63
2024-05-18 07:02:00,SystemResetWarning,0824.4,4.99,000.00,024.6,023.8,000.0,032.8,026.4,018.2,0000.0,0009.99,0003.54,0002.64
2024-05-18 07:03:00,SystemResetWarning,0824.4,5.01,000.00,024.7,023.9,000.0,032.8,026.5,018.1,0000.0,0009.91,0003.53,0002.65
2024-05-18 07:04:00,SystemResetWarning,0824.4,5.01,000.00,024.7,024.0,000.0,032.8,026.6,018.0,0000.0,0010.49,0003.53,0002.67
2024-05-18 07:05:00,SystemResetWarning,0824.4,5.00,000.00,024.8,024.1,000.0,032.8,026.6,018.0,0000.0,0010.51,0003.54,0002.68
2024-05-18 07:06:00,SystemResetWarning,0824.4,4.98,000.00,024.8,024.2,000.0,032.8,026.7,017.9,0000.0,0010.45,0003.59,0002.70
2024-05-18 07:07:00,SystemResetWarning,0824.4,5.00,000.00,024.9,024.3,000.0,032.8,026.7,017.9,0000.0,0010.49,0003.65,0002.71
2024-05-18 07:08:00,SystemResetWarning,0824.4,5.00,000.00,024.9,024.4,000.0,032.9,026.8,017.9,0000.0,0010.26,0003.64,0002.69
2024-05-18 07:09:00,SystemResetWarning,0824.4,5.00,000.00,025.0,024.4,000.0,032.9,026.8,017.9,0000.0,0009.91,0003.66,0002.71
2024-05-18 07:10:00,SystemResetWarning,0824.4,5.00,000.00,025.0,024.5,000.0,032.9,026.9,017.8,0000.0,0009.37,0003.64,0002.69
2024-05-18 07:11:00,SystemResetWarning,0824.4,5.00,000.00,025.1,024.5,000.0,033.0,026.9,017.7,0000.0,0009.19,0003.64,0002.70
2024-05-18 07:12:00,SystemResetWarning,0824.3,5.00,000.00,025.1,024.6,000.0,033.0,026.9,017.7,0000.0,0009.45,0003.66,0002.72
2024-05-18 07:13:00,SystemResetWarning,0824.4,5.01,000.00,025.1,024.6,000.0,033.0,027.0,017.6,0000.0,0009.50,0003.66,0002.71
2024-05-18 07:14:00,SystemResetWarning,0824.4,5.01,000.00,025.2,024.7,000.0,033.1,027.0,017.5,0000.0,0010.33,0003.63,0002.70
2024-05-18 07:15:00,SystemResetWarning,0824.4,4.99,000.00,025.2,024.7,000.0,033.1,027.1,017.5,0000.0,0009.75,0003.62,0002.70
2024-05-18 07:16:00,SystemResetWarning,0824.3,4.99,000.00,025.3,024.7,000.0,033.1,027.1,017.5,0000.0,0009.68,0003.63,0002.72
2024-05-18 07:17:00,SystemResetWarning,0824.4,4.99,000.00,025.3,024.8,000.0,033.2,027.1,017.5,0000.0,0009.33,0003.61,0002.72
2024-05-18 07:18:00,SystemResetWarning,0824.3,5.00,000.00,025.2,023.5,000.0,033.3,026.3,017.6,0000.0,0008.84,0003.56,0002.71
2024-05-18 07:19:00,SystemResetWarning,0824.3,5.01,000.00,024.7,021.7,000.0,033.3,025.4,018.0,0000.0,0008.90,0003.60,0002.72
2024-05-18 07:20:00,SystemResetWarning,0824.2,5.02,000.00,024.5,021.8,000.0,033.3,025.4,018.3,0000.0,0008.86,0003.57,0002.72
2024-05-18 07:21:00,SystemResetWarning,0824.3,5.00,000.00,024.4,022.1,000.0,033.1,025.5,018.4,0000.0,0008.49,0003.57,0002.74
2024-05-18 07:22:00,SystemResetWarning,0824.3,5.00,000.00,024.4,022.5,000.0,033.0,025.8,018.4,0000.0,0008.41,0003.58,0002.75
2024-05-18 07:23:00,SystemResetWarning,0824.3,5.00,000.00,024.5,022.8,000.0,032.9,026.0,018.3,0000.0,0008.06,0003.57,0002.75
2024-05-18 07:24:00,SystemResetWarning,0824.3,5.01,000.00,024.5,023.1,000.0,032.9,026.1,018.3,0000.0,0008.24,0003.60,0002.77
2024-05-18 07:25:00,SystemResetWarning,0824.3,5.00,000.00,024.5,023.3,000.0,032.9,026.3,018.2,0000.0,0007.67,0003.64,0002.79
2024-05-18 07:26:00,SystemResetWarning,0824.3,5.00,000.00,024.6,023.5,000.0,032.8,026.3,018.2,0000.0,0008.66,0003.67,0002.79
2024-05-18 07:27:00,SystemResetWarning,0824.3,5.00,000.00,024.6,023.7,000.0,032.8,026.4,018.1,0000.0,0009.02,0003.64,0002.78
2024-05-18 07:28:00,SystemResetWarning,0824.3,5.00,000.00,024.7,023.8,000.0,032.8,026.5,018.0,0000.0,0009.33,0003.64,0002.78
2024-05-18 07:29:00,SystemResetWarning,0824.3,5.00,000.00,024.7,024.0,000.0,032.8,026.5,017.9,0000.0,0009.30,0003.65,0002.80
2024-05-18 07:30:00,SystemResetWarning,0824.3,5.00,000.00,024.8,024.1,000.0,032.9,026.6,018.0,0000.0,0009.16,0003.62,0002.82
2024-05-18 07:31:00,SystemResetWarning,0824.3,5.00,000.00,024.8,024.2,000.0,032.9,026.6,018.0,0000.0,0009.22,0003.63,0002.83
2024-05-18 07:32:00,SystemResetWarning,0824.3,5.00,000.00,024.9,024.2,000.0,032.9,026.7,018.0,0000.0,0009.44,0003.64,0002.82
2024-05-18 07:33:00,SystemResetWarning,0824.3,5.00,000.00,024.9,024.3,000.0,032.9,026.7,018.0,0000.0,0009.52,0003.66,0002.83
2024-05-18 07:34:00,SystemResetWarning,0824.4,5.00,000.00,025.0,024.4,000.0,032.9,026.8,018.0,0000.0,0009.57,0003.68,0002.84
2024-05-18 07:35:00,SystemResetWarning,0824.3,4.99,000.00,025.0,024.4,000.0,033.0,026.8,018.0,0000.0,0009.44,0003.69,0002.82
2024-05-18 07:36:00,SystemResetWarning,0824.3,5.00,000.00,025.0,024.5,000.0,033.0,026.9,017.9,0000.0,0010.72,0003.69,0002.82
2024-05-18 07:37:00,SystemResetWarning,0824.4,5.00,000.00,025.1,024.5,000.0,033.0,026.9,017.8,0000.0,0010.49,0003.70,0002.82
2024-05-18 07:38:00,SystemResetWarning,0824.3,5.00,000.00,025.1,024.6,000.0,033.1,026.9,017.8,0000.0,0010.89,0003.73,0002.82
2024-05-18 07:39:00,SystemResetWarning,0824.4,5.00,000.00,025.2,024.6,000.0,033.1,027.0,017.7,0000.0,0010.56,0003.71,0002.83
2024-05-18 07:40:00,SystemResetWarning,0824.4,5.01,000.00,025.2,024.7,000.0,033.1,027.0,017.7,0000.0,0010.60,0003.72,0002.82
2024-05-18 07:41:00,SystemResetWarning,0824.4,5.00,000.00,025.2,024.7,000.0,033.1,027.1,017.7,0000.0,0010.68,0003.73,0002.81
2024-05-18 07:42:00,SystemResetWarning,0824.4,5.01,000.00,025.3,024.8,000.0,033.2,027.1,017.7,0000.0,0010.63,0003.74,0002.80
2024-05-18 07:43:00,SystemResetWarning,0824.4,5.00,000.00,025.3,024.8,000.0,033.2,027.1,017.7,0000.0,0010.42,0003.74,0002.81
2024-05-18 07:44:00,SystemResetWarning,0824.3,4.99,000.00,025.2,023.8,000.0,033.3,026.5,017.8,0000.0,0010.34,0003.73,0002.82
2024-05-18 07:45:00,SystemResetWarning,0824.2,5.00,000.00,024.8,021.8,000.0,033.3,025.5,018.2,0000.0,0010.48,0003.74,0002.83
2024-05-18 07:46:00,SystemResetWarning,0824.3,5.01,000.00,024.5,021.7,000.0,033.3,025.3,018.4,0000.0,0010.49,0003.72,0002.84
2024-05-18 07:47:00,SystemResetWarning,0824.3,4.99,000.00,024.4,022.1,000.0,033.2,025.5,018.4,0000.0,0009.76,0003.69,0002.83
2024-05-18 07:48:00,SystemResetWarning,0824.3,4.99,000.00,024.4,022.4,000.0,033.1,025.7,018.3,0000.0,0009.36,0003.71,0002.83
2024-05-18 07:49:00,SystemResetWarning,0824.4,5.00,000.00,024.5,022.7,000.0,033.0,025.9,018.3,0000.0,0009.24,0003.75,0002.84
2024-05-18 07:50:00,SystemResetWarning,0824.4,5.01,000.00,024.5,023.0,000.0,032.9,026.1,018.2,0000.0,0010.07,0003.78,0002.85
2024-05-18 07:51:00,SystemResetWarning,0824.4,4.99,000.00,024.5,023.3,000.0,032.9,026.2,018.1,0000.0,0011.22,0003.80,0002.85
2024-05-18 07:52:00,SystemResetWarning,0824.4,4.99,000.00,024.6,023.5,000.0,032.9,026.3,018.0,0000.0,0011.87,0003.82,0002.86
2024-05-18 07:53:00,SystemResetWarning,0824.4,5.00,000.00,024.6,023.7,000.0,032.9,026.4,018.0,0000.0,0012.22,0003.84,0002.86
2024-05-18 07:54:00,SystemResetWarning,0824.4,5.00,000.00,024.7,023.8,000.0,032.8,026.4,018.0,0000.0,0012.32,0003.88,0002.88
2024-05-18 07:55:00,SystemResetWarning,0824.4,5.01,000.00,024.7,023.9,000.0,032.9,026.5,017.9,0000.0,0012.55,0003.91,0002.88
2024-05-18 07:56:00,SystemResetWarning,0824.3,5.01,000.00,024.8,024.1,000.0,032.9,026.6,017.9,0000.0,0012.49,0003.90,0002.88
2024-05-18 07:57:00,SystemResetWarning,0824.4,5.00,000.00,024.8,024.1,000.0,032.9,026.6,017.8,0000.0,0012.44,0003.88,0002.89
2024-05-18 07:58:00,SystemResetWarning,0824.4,5.01,000.00,024.9,024.2,000.0,032.9,026.7,017.7,0000.0,0012.22,0003.91,0002.90
2024-05-18 07:59:00,SystemResetWarning,0824.4,5.00,000.00,024.9,024.3,000.0,032.9,026.7,017.7,0000.0,0011.61,0003.90,0002.91
